Time,TemperatureF,DewpointF,PressureIn,WindDirection,WindDirectionDegrees,WindSpeedMPH,WindSpeedGustMPH,Humidity,HourlyPrecipIn,Conditions,Clouds,dailyrainin,SoftwareType,DateUTC
2013-08-12 00:01:00,75.1,69.2,30.08,NNE,18,0.0,0.0,82,0.00,RA,,0.00,WeatherDisplay:10.37,2013-08-12 04:01:00,
2013-08-12 00:02:00,75.0,69.1,30.07,NNE,18,0.0,0.0,82,0.00,RA,,0.00,WeatherDisplay:10.37,2013-08-12 04:02:00,
2013-08-12 00:05:00,75.0,69.1,30.07,NNE,18,0.0,0.0,82,0.00,RA,,0.00,WeatherDisplay:10.37,2013-08-12 04:05:00,
2013-08-12 00:10:00,74.9,69.0,30.07,NNE,18,0.0,0.0,82,0.00,RA,,0.00,WeatherDisplay:10.37,2013-08-12 04:10:00,
2013-08-12 00:15:00,74.7,68.8,30.07,NNE,18,0.0,0.0,82,0.00,CLR,,0.00,WeatherDisplay:10.37,2013-08-12 04:15:00,
2013-08-12 00:20:00,74.5,68.6,30.07,NNE,18,0.0,0.0,82,0.00,CLR,,0.00,WeatherDisplay:10.37,2013-08-12 04:20:00,
2013-08-12 00:25:00,74.3,68.8,30.07,NNE,18,0.0,0.0,83,0.00,CLR,,0.00,WeatherDisplay:10.37,2013-08-12 04:25:00,
2013-08-12 00:30:00,74.2,68.7,30.07,NNE,18,0.0,0.0,83,0.00,CLR,,0.00,WeatherDisplay:10.37,2013-08-12 04:30:00,
2013-08-12 00:35:00,74.0,68.5,30.07,NNE,18,0.0,0.0,83,0.00,CLR,,0.00,WeatherDisplay:10.37,2013-08-12 04:35:00,
2013-08-12 00:40:00,73.9,68.4,30.06,NNE,18,0.0,0.0,83,0.00,CLR,,0.00,WeatherDisplay:10.37,2013-08-12 04:40:00,
2013-08-12 00:45:00,73.7,68.2,30.07,NNE,18,0.0,0.0,83,0.00,CLR,,0.00,WeatherDisplay:10.37,2013-08-12 04:45:00,
2013-08-12 00:50:00,73.6,68.1,30.07,NNE,18,0.0,0.0,83,0.00,CLR,,0.00,WeatherDisplay:10.37,2013-08-12 04:50:00,
2013-08-12 00:55:00,73.5,68.0,30.07,NNE,18,0.0,0.0,83,0.00,CLR,,0.00,WeatherDisplay:10.37,2013-08-12 04:55:00,
2013-08-12 01:00:00,73.4,68.3,30.06,NNE,18,0.0,0.0,84,0.00,CLR,,0.00,WeatherDisplay:10.37,2013-08-12 05:00:00,
2013-08-12 01:05:00,73.2,68.1,30.07,NNE,18,0.0,0.0,84,0.00,CLR,,0.00,WeatherDisplay:10.37,2013-08-12 05:05:00,
2013-08-12 01:10:00,73.0,67.9,30.07,NNE,18,0.0,0.0,84,0.00,CLR,,0.00,WeatherDisplay:10.37,2013-08-12 05:10:00,
2013-08-12 01:15:00,72.8,68.0,30.07,NNE,18,0.0,0.0,85,0.00,CLR,,0.00,WeatherDisplay:10.37,2013-08-12 05:15:00,
2013-08-12 01:20:00,72.7,67.9,30.07,NNE,18,0.0,0.0,85,0.00,CLR,,0.00,WeatherDisplay:10.37,2013-08-12 05:20:00,
2013-08-12 01:25:00,72.5,67.7,30.07,NNE,18,0.0,0.0,85,0.00,CLR,,0.00,WeatherDisplay:10.37,2013-08-12 05:25:00,
2013-08-12 01:30:00,72.4,67.6,30.07,NNE,18,0.0,0.0,85,0.00,CLR,,0.00,WeatherDisplay:10.37,2013-08-12 05:30:00,
2013-08-12 01:35:00,72.4,67.6,30.07,NNE,18,0.0,0.0,85,0.00,CLR,,0.00,WeatherDisplay:10.37,2013-08-12 05:35:00,
2013-08-12 01:40:00,72.3,67.5,30.07,NNE,18,0.0,0.0,85,0.00,CLR,,0.00,WeatherDisplay:10.37,2013-08-12 05:40:00,
2013-08-12 01:45:00,72.2,67.4,30.07,NNE,18,0.0,0.0,85,0.00,CLR,,0.00,WeatherDisplay:10.37,2013-08-12 05:45:00,
2013-08-12 01:50:00,72.1,67.3,30.07,NNE,18,0.0,0.0,85,0.00,CLR,,0.00,WeatherDisplay:10.37,2013-08-12 05:50:00,
2013-08-12 01:55:00,71.9,67.5,30.07,NNE,18,0.0,0.0,86,0.00,CLR,,0.00,WeatherDisplay:10.37,2013-08-12 05:55:00,
2013-08-12 02:00:00,71.8,67.4,30.07,NNE,18,0.0,0.0,86,0.00,CLR,,0.00,WeatherDisplay:10.37,2013-08-12 06:00:00,
2013-08-12 02:05:00,71.7,67.3,30.07,NNE,19,0.0,0.0,86,0.00,CLR,,0.00,WeatherDisplay:10.37,2013-08-12 06:05:00,
2013-08-12 02:10:00,71.6,67.2,30.07,NNE,18,0.0,0.0,86,0.00,CLR,,0.00,WeatherDisplay:10.37,2013-08-12 06:10:00,
2013-08-12 02:15:00,71.6,67.2,30.07,NNE,18,0.0,0.0,86,0.00,CLR,,0.00,WeatherDisplay:10.37,2013-08-12 06:15:00,
2013-08-12 02:20:00,71.5,67.1,30.07,NNE,18,0.0,0.0,86,0.00,CLR,,0.00,WeatherDisplay:10.37,2013-08-12 06:20:00,
2013-08-12 02:25:00,71.3,67.2,30.07,NNE,18,0.0,0.0,87,0.00,CLR,,0.00,WeatherDisplay:10.37,2013-08-12 06:25:00,
2013-08-12 02:31:00,71.3,67.2,30.07,NNE,18,0.0,0.0,87,0.00,CLR,,0.00,WeatherDisplay:10.37,2013-08-12 06:31:00,
2013-08-12 02:36:00,71.2,67.1,30.07,NNE,18,0.0,0.0,87,0.00,CLR,,0.00,WeatherDisplay:10.37,2013-08-12 06:36:00,
2013-08-12 02:41:00,71.2,67.1,30.07,NNE,18,0.0,0.0,87,0.00,CLR,,0.00,WeatherDisplay:10.37,2013-08-12 06:41:00,
2013-08-12 02:46:00,71.2,67.5,30.07,NNE,18,0.0,0.0,88,0.00,CLR,,0.00,WeatherDisplay:10.37,2013-08-12 06:46:00,
2013-08-12 02:51:00,71.2,67.5,30.06,NNE,18,0.0,0.0,88,0.00,CLR,,0.00,WeatherDisplay:10.37,2013-08-12 06:51:00,
2013-08-12 02:56:00,71.1,67.4,30.06,NNE,18,0.0,0.0,88,0.00,CLR,,0.00,WeatherDisplay:10.37,2013-08-12 06:56:00,
2013-08-12 03:01:00,71.1,67.4,30.06,NNE,18,0.0,0.0,88,0.00,CLR,,0.00,WeatherDisplay:10.37,2013-08-12 07:01:00,
2013-08-12 03:06:00,71.1,67.4,30.06,NNE,18,0.0,0.0,88,0.00,BKN,,0.00,WeatherDisplay:10.37,2013-08-12 07:06:00,
2013-08-12 03:11:00,71.2,67.5,30.06,NNE,18,0.0,0.0,88,0.00,BKN,,0.00,WeatherDisplay:10.37,2013-08-12 07:11:00,
2013-08-12 03:16:00,71.2,67.5,30.06,NNE,18,0.0,0.0,88,0.00,BKN,,0.00,WeatherDisplay:10.37,2013-08-12 07:16:00,
2013-08-12 03:21:00,71.0,67.3,30.06,NNE,18,0.0,0.0,88,0.00,BKN,,0.00,WeatherDisplay:10.37,2013-08-12 07:21:00,
2013-08-12 03:26:00,70.9,67.2,30.06,NNE,18,0.0,0.0,88,0.00,BKN,,0.00,WeatherDisplay:10.37,2013-08-12 07:26:00,
2013-08-12 03:31:00,70.8,67.1,30.06,NNE,18,0.0,0.0,88,0.00,BKN,,0.00,WeatherDisplay:10.37,2013-08-12 07:31:00,
2013-08-12 03:36:00,70.8,67.4,30.06,NNE,18,0.0,0.0,89,0.00,BKN,,0.00,WeatherDisplay:10.37,2013-08-12 07:36:00,
2013-08-12 03:41:00,70.6,67.2,30.06,NNE,18,0.0,0.0,89,0.00,BKN,,0.00,WeatherDisplay:10.37,2013-08-12 07:41:00,
2013-08-12 03:46:00,70.5,67.1,30.06,NNE,18,0.0,0.0,89,0.00,BKN,,0.00,WeatherDisplay:10.37,2013-08-12 07:46:00,
2013-08-12 03:51:00,70.3,66.6,30.06,NNE,18,0.0,0.0,88,0.00,BKN,,0.00,WeatherDisplay:10.37,2013-08-12 07:51:00,
2013-08-12 03:56:00,70.3,66.9,30.06,NNE,18,0.0,0.0,89,0.00,BKN,,0.00,WeatherDisplay:10.37,2013-08-12 07:56:00,
2013-08-12 04:01:00,70.3,66.9,30.06,NNE,18,0.0,0.0,89,0.00,BKN,,0.00,WeatherDisplay:10.37,2013-08-12 08:01:00,
2013-08-12 04:06:00,70.2,66.8,30.06,NNE,18,0.0,0.0,89,0.00,FEW,,0.00,WeatherDisplay:10.37,2013-08-12 08:06:00,
2013-08-12 04:11:00,70.2,66.8,30.06,NNE,18,0.0,0.0,89,0.00,FEW,,0.00,WeatherDisplay:10.37,2013-08-12 08:11:00,
2013-08-12 04:16:00,70.2,66.8,30.06,NNE,18,0.0,0.0,89,0.00,FEW,,0.00,WeatherDisplay:10.37,2013-08-12 08:16:00,
2013-08-12 04:21:00,70.1,66.7,30.06,NNE,18,0.0,0.0,89,0.00,FEW,,0.00,WeatherDisplay:10.37,2013-08-12 08:21:00,
2013-08-12 04:26:00,69.9,66.8,30.06,NNE,18,0.0,0.0,90,0.00,FEW,,0.00,WeatherDisplay:10.37,2013-08-12 08:26:00,
2013-08-12 04:31:00,69.8,66.4,30.06,NNE,18,0.0,0.0,89,0.00,FEW,,0.00,WeatherDisplay:10.37,2013-08-12 08:31:00,
2013-08-12 04:36:00,69.8,66.7,30.06,NNE,18,0.0,0.0,90,0.00,FEW,,0.00,WeatherDisplay:10.37,2013-08-12 08:36:00,
2013-08-12 04:41:00,69.6,66.5,30.07,NNE,18,0.0,0.0,90,0.00,FEW,,0.00,WeatherDisplay:10.37,2013-08-12 08:41:00,
2013-08-12 04:46:00,69.5,66.4,30.06,NNE,18,0.0,0.0,90,0.00,FEW,,0.00,WeatherDisplay:10.37,2013-08-12 08:46:00,
2013-08-12 04:51:00,69.4,66.3,30.06,NNE,18,0.0,0.0,90,0.00,FEW,,0.00,WeatherDisplay:10.37,2013-08-12 08:51:00,
2013-08-12 04:56:00,69.3,66.2,30.06,NNE,18,0.0,0.0,90,0.00,FEW,,0.00,WeatherDisplay:10.37,2013-08-12 08:56:00,
2013-08-12 05:01:00,69.2,66.1,30.06,NNE,18,0.0,0.0,90,0.00,FEW,,0.00,WeatherDisplay:10.37,2013-08-12 09:01:00,
2013-08-12 05:06:00,69.2,66.1,30.06,NNE,18,0.0,0.0,90,0.00,CLR,,0.00,WeatherDisplay:10.37,2013-08-12 09:06:00,
2013-08-12 05:11:00,69.1,66.0,30.06,NNE,18,0.0,0.0,90,0.00,CLR,,0.00,WeatherDisplay:10.37,2013-08-12 09:11:00,
2013-08-12 05:16:00,69.0,65.9,30.06,NNE,18,0.0,0.0,90,0.00,CLR,,0.00,WeatherDisplay:10.37,2013-08-12 09:16:00,
2013-08-12 05:21:00,68.9,65.8,30.05,NNE,18,0.0,0.0,90,0.00,CLR,,0.00,WeatherDisplay:10.37,2013-08-12 09:21:00,
2013-08-12 05:26:00,68.8,65.7,30.05,NNE,18,0.0,0.0,90,0.00,CLR,,0.00,WeatherDisplay:10.37,2013-08-12 09:26:00,
2013-08-12 05:31:00,68.8,65.7,30.05,NNE,18,0.0,0.0,90,0.00,CLR,,0.00,WeatherDisplay:10.37,2013-08-12 09:31:00,
2013-08-12 05:36:00,68.8,65.7,30.06,NNE,18,0.0,0.0,90,0.00,CLR,,0.00,WeatherDisplay:10.37,2013-08-12 09:36:00,
2013-08-12 05:41:00,68.9,65.8,30.06,NNE,18,0.0,0.0,90,0.00,CLR,,0.00,WeatherDisplay:10.37,2013-08-12 09:41:00,
2013-08-12 05:46:00,68.8,65.7,30.05,NNE,18,0.0,0.0,90,0.00,CLR,,0.00,WeatherDisplay:10.37,2013-08-12 09:46:00,
2013-08-12 05:51:00,68.8,65.7,30.05,NNE,18,0.0,0.0,90,0.00,CLR,,0.00,WeatherDisplay:10.37,2013-08-12 09:51:00,
2013-08-12 05:56:00,68.6,65.5,30.04,NNE,18,0.0,0.0,90,0.00,CLR,,0.00,WeatherDisplay:10.37,2013-08-12 09:56:00,
2013-08-12 06:01:00,68.5,65.4,30.05,NNE,18,0.0,0.0,90,0.00,CLR,,0.00,WeatherDisplay:10.37,2013-08-12 10:01:00,
2013-08-12 06:06:00,68.3,65.3,30.05,NNE,18,0.0,0.0,90,0.00,CLR,,0.00,WeatherDisplay:10.37,2013-08-12 10:06:00,
2013-08-12 06:11:00,68.2,65.2,30.05,NNE,18,0.0,0.0,90,0.00,CLR,,0.00,WeatherDisplay:10.37,2013-08-12 10:11:00,
2013-08-12 06:16:00,68.1,65.1,30.05,NNE,18,0.0,0.0,90,0.00,CLR,,0.00,WeatherDisplay:10.37,2013-08-12 10:16:00,
2013-08-12 06:21:00,68.3,65.3,30.06,NNE,18,0.0,0.0,90,0.00,CLR,,0.00,WeatherDisplay:10.37,2013-08-12 10:21:00,
2013-08-12 06:26:00,68.5,65.4,30.05,NNE,18,0.0,0.0,90,0.00,CLR,,0.00,WeatherDisplay:10.37,2013-08-12 10:26:00,
2013-08-12 06:31:00,68.6,65.5,30.06,NNE,18,0.0,0.0,90,0.00,CLR,,0.00,WeatherDisplay:10.37,2013-08-12 10:31:00,
2013-08-12 06:36:00,68.6,65.5,30.06,NNE,18,0.0,0.0,90,0.00,CLR,,0.00,WeatherDisplay:10.37,2013-08-12 10:36:00,
2013-08-12 06:41:00,68.6,65.5,30.06,NNE,18,0.0,0.0,90,0.00,CLR,,0.00,WeatherDisplay:10.37,2013-08-12 10:41:00,
2013-08-12 06:46:00,68.6,65.5,30.05,NNE,18,0.0,0.0,90,0.00,CLR,,0.00,WeatherDisplay:10.37,2013-08-12 10:46:00,
2013-08-12 06:51:00,68.5,65.4,30.05,NNE,18,0.0,0.0,90,0.00,CLR,,0.00,WeatherDisplay:10.37,2013-08-12 10:51:00,
2013-08-12 06:56:00,68.5,65.4,30.05,NNE,18,0.0,0.0,90,0.00,CLR,,0.00,WeatherDisplay:10.37,2013-08-12 10:56:00,
2013-08-12 07:01:00,68.6,65.5,30.04,NNE,18,0.0,0.0,90,0.00,CLR,,0.00,WeatherDisplay:10.37,2013-08-12 11:01:00,
2013-08-12 07:06:00,68.5,65.4,30.04,NNE,18,0.0,0.0,90,0.00,CLR,,0.00,WeatherDisplay:10.37,2013-08-12 11:06:00,
2013-08-12 07:11:00,68.5,65.4,30.04,NNE,18,0.0,0.0,90,0.00,CLR,,0.00,WeatherDisplay:10.37,2013-08-12 11:11:00,
2013-08-12 07:16:00,68.6,65.5,30.04,NNE,18,0.0,0.0,90,0.00,CLR,,0.00,WeatherDisplay:10.37,2013-08-12 11:16:00,
2013-08-12 07:21:00,68.7,65.6,30.04,NNE,18,0.0,0.0,90,0.00,CLR,,0.00,WeatherDisplay:10.37,2013-08-12 11:21:00,
2013-08-12 07:26:00,69.0,65.9,30.04,NNE,18,0.0,0.0,90,0.00,CLR,,0.00,WeatherDisplay:10.37,2013-08-12 11:26:00,
2013-08-12 07:31:00,69.2,66.1,30.04,NNE,18,0.0,0.0,90,0.00,CLR,,0.00,WeatherDisplay:10.37,2013-08-12 11:31:00,
2013-08-12 07:36:00,69.4,66.3,30.05,NNE,18,0.0,0.0,90,0.00,CLR,,0.00,WeatherDisplay:10.37,2013-08-12 11:36:00,
2013-08-12 07:41:00,69.6,66.5,30.05,NNE,18,0.0,0.0,90,0.00,CLR,,0.00,WeatherDisplay:10.37,2013-08-12 11:41:00,
2013-08-12 07:46:00,69.9,66.8,30.05,NNE,18,0.0,0.0,90,0.00,CLR,,0.00,WeatherDisplay:10.37,2013-08-12 11:46:00,
2013-08-12 07:51:00,70.1,67.0,30.05,NNE,18,0.0,0.0,90,0.00,CLR,,0.00,WeatherDisplay:10.37,2013-08-12 11:51:00,
2013-08-12 07:56:00,70.2,67.1,30.04,NNE,18,0.0,0.0,90,0.00,CLR,,0.00,WeatherDisplay:10.37,2013-08-12 11:56:00,
2013-08-12 08:01:00,70.3,67.2,30.04,NNE,18,0.0,0.0,90,0.00,CLR,,0.00,WeatherDisplay:10.37,2013-08-12 12:01:00,
2013-08-12 08:06:00,70.3,67.2,30.05,NNE,18,0.0,0.0,90,0.00,CLR,,0.00,WeatherDisplay:10.37,2013-08-12 12:06:00,
2013-08-12 08:11:00,70.3,67.2,30.04,NNE,18,0.0,0.0,90,0.00,CLR,,0.00,WeatherDisplay:10.37,2013-08-12 12:11:00,
2013-08-12 08:16:00,70.3,67.2,30.04,NNE,18,0.0,0.0,90,0.00,CLR,,0.00,WeatherDisplay:10.37,2013-08-12 12:16:00,
2013-08-12 08:21:00,70.4,67.3,30.04,NNE,18,1.1,0.0,90,0.00,CLR,,0.00,WeatherDisplay:10.37,2013-08-12 12:21:00,
2013-08-12 08:26:00,70.6,67.5,30.04,NNE,18,0.0,0.0,90,0.00,CLR,,0.00,WeatherDisplay:10.37,2013-08-12 12:26:00,
2013-08-12 08:31:00,70.9,67.5,30.04,NNE,18,3.5,3.5,89,0.00,CLR,,0.00,WeatherDisplay:10.37,2013-08-12 12:31:00,
2013-08-12 08:36:00,71.3,67.6,30.05,NNE,18,3.0,3.0,88,0.00,CLR,,0.00,WeatherDisplay:10.37,2013-08-12 12:36:00,
2013-08-12 08:41:00,71.7,67.3,30.04,NNE,18,1.1,1.1,86,0.00,CLR,,0.00,WeatherDisplay:10.37,2013-08-12 12:41:00,
2013-08-12 08:46:00,72.0,67.2,30.04,NNE,19,0.0,0.0,85,0.00,CLR,,0.00,WeatherDisplay:10.37,2013-08-12 12:46:00,
2013-08-12 08:51:00,72.5,67.7,30.04,NNE,19,1.1,0.0,85,0.00,CLR,,0.00,WeatherDisplay:10.37,2013-08-12 12:51:00,
2013-08-12 08:56:00,72.9,67.8,30.04,NNE,18,2.3,0.0,84,0.00,CLR,,0.00,WeatherDisplay:10.37,2013-08-12 12:56:00,
2013-08-12 09:01:00,73.3,67.8,30.04,NNE,18,1.1,1.1,83,0.00,CLR,,0.00,WeatherDisplay:10.37,2013-08-12 13:01:00,
2013-08-12 09:06:00,73.8,68.3,30.04,NNE,18,1.1,0.0,83,0.00,BKN,,0.00,WeatherDisplay:10.37,2013-08-12 13:06:00,
2013-08-12 09:11:00,74.2,68.3,30.05,NNE,18,1.0,1.0,82,0.00,BKN,,0.00,WeatherDisplay:10.37,2013-08-12 13:11:00,
2013-08-12 09:16:00,74.7,68.1,30.05,NNE,12,2.3,2.3,80,0.00,BKN,,0.00,WeatherDisplay:10.37,2013-08-12 13:16:00,
2013-08-12 09:21:00,75.1,68.5,30.05,NNE,12,1.1,0.0,80,0.00,BKN,,0.00,WeatherDisplay:10.37,2013-08-12 13:21:00,
2013-08-12 09:26:00,75.4,68.8,30.05,NNE,12,1.1,1.1,80,0.00,BKN,,0.00,WeatherDisplay:10.37,2013-08-12 13:26:00,
2013-08-12 09:31:00,75.5,68.9,30.05,NNE,12,2.0,2.0,80,0.00,BKN,,0.00,WeatherDisplay:10.37,2013-08-12 13:31:00,
2013-08-12 09:36:00,75.9,69.6,30.05,North,7,1.1,1.1,81,0.00,BKN,,0.00,WeatherDisplay:10.37,2013-08-12 13:36:00,
2013-08-12 09:41:00,76.2,69.6,30.05,North,7,0.0,0.0,80,0.00,BKN,,0.00,WeatherDisplay:10.37,2013-08-12 13:41:00,
2013-08-12 09:46:00,76.4,69.8,30.04,North,353,4.0,4.0,80,0.00,BKN,,0.00,WeatherDisplay:10.37,2013-08-12 13:46:00,
2013-08-12 09:51:00,76.7,70.1,30.04,NW,309,2.3,2.3,80,0.00,BKN,,0.00,WeatherDisplay:10.37,2013-08-12 13:51:00,
2013-08-12 09:56:00,77.1,70.1,30.04,WSW,252,5.0,5.0,79,0.00,BKN,,0.00,WeatherDisplay:10.37,2013-08-12 13:56:00,
2013-08-12 10:01:00,77.3,69.9,30.04,SW,218,6.0,6.0,78,0.00,BKN,,0.00,WeatherDisplay:10.37,2013-08-12 14:01:00,
2013-08-12 10:06:00,77.5,70.1,30.04,SW,219,6.0,6.0,78,0.00,CLR,,0.00,WeatherDisplay:10.37,2013-08-12 14:06:00,
2013-08-12 10:11:00,77.2,69.8,30.04,SW,220,3.5,3.5,78,0.00,CLR,,0.00,WeatherDisplay:10.37,2013-08-12 14:11:00,
2013-08-12 10:16:00,77.5,70.5,30.04,SW,220,2.3,2.3,79,0.00,CLR,,0.00,WeatherDisplay:10.37,2013-08-12 14:16:00,
2013-08-12 10:21:00,77.8,70.8,30.04,SW,219,3.0,3.0,79,0.00,CLR,,0.00,WeatherDisplay:10.37,2013-08-12 14:21:00,
2013-08-12 10:26:00,78.1,70.7,30.04,SW,218,5.0,5.0,78,0.00,CLR,,0.00,WeatherDisplay:10.37,2013-08-12 14:26:00,
2013-08-12 10:31:00,78.2,70.0,30.03,SSW,212,4.0,4.0,76,0.00,CLR,,0.00,WeatherDisplay:10.37,2013-08-12 14:31:00,
2013-08-12 10:36:00,78.0,69.8,30.04,SSW,212,5.0,5.0,76,0.00,CLR,,0.00,WeatherDisplay:10.37,2013-08-12 14:36:00,
2013-08-12 10:41:00,78.0,70.2,30.04,SSW,212,3.0,3.0,77,0.00,CLR,,0.00,WeatherDisplay:10.37,2013-08-12 14:41:00,
2013-08-12 10:46:00,77.8,69.6,30.04,SW,221,5.0,5.0,76,0.00,CLR,,0.00,WeatherDisplay:10.37,2013-08-12 14:46:00,
2013-08-12 10:51:00,77.5,69.7,30.04,SW,219,5.0,5.0,77,0.00,CLR,,0.00,WeatherDisplay:10.37,2013-08-12 14:51:00,
2013-08-12 10:56:00,77.2,69.4,30.04,SSW,194,3.5,3.5,77,0.00,CLR,,0.00,WeatherDisplay:10.37,2013-08-12 14:56:00,
2013-08-12 11:01:00,77.0,69.6,30.04,SSW,195,4.0,4.0,78,0.00,CLR,,0.00,WeatherDisplay:10.37,2013-08-12 15:01:00,
2013-08-12 11:06:00,77.1,70.1,30.04,SSW,195,2.3,2.3,79,0.00,OVC,,0.00,WeatherDisplay:10.37,2013-08-12 15:06:00,
2013-08-12 11:11:00,77.2,70.2,30.05,SSW,195,4.0,4.0,79,0.00,OVC,,0.00,WeatherDisplay:10.37,2013-08-12 15:11:00,
2013-08-12 11:16:00,77.2,70.2,30.04,SSW,194,0.0,0.0,79,0.00,OVC,,0.00,WeatherDisplay:10.37,2013-08-12 15:16:00,
2013-08-12 11:21:00,77.4,70.4,30.05,SSW,195,4.0,4.0,79,0.00,OVC,,0.00,WeatherDisplay:10.37,2013-08-12 15:21:00,
2013-08-12 11:26:00,77.5,70.1,30.05,SSW,195,5.0,5.0,78,0.00,OVC,,0.00,WeatherDisplay:10.37,2013-08-12 15:26:00,
2013-08-12 11:31:00,77.4,70.0,30.04,SSW,195,2.0,2.0,78,0.00,OVC,,0.00,WeatherDisplay:10.37,2013-08-12 15:31:00,
2013-08-12 11:36:00,77.6,70.2,30.04,SSW,197,5.0,5.0,78,0.00,OVC,,0.00,WeatherDisplay:10.37,2013-08-12 15:36:00,
2013-08-12 11:41:00,77.8,70.4,30.04,SSW,198,2.3,2.3,78,0.00,OVC,,0.00,WeatherDisplay:10.37,2013-08-12 15:41:00,
2013-08-12 11:46:00,78.0,70.2,30.03,SSW,198,5.0,5.0,77,0.00,OVC,,0.00,WeatherDisplay:10.37,2013-08-12 15:46:00,
2013-08-12 11:51:00,78.3,70.9,30.03,SSW,198,1.1,1.1,78,0.00,OVC,,0.00,WeatherDisplay:10.37,2013-08-12 15:51:00,
2013-08-12 11:56:00,78.4,70.6,30.03,SSW,203,5.8,5.8,77,0.00,OVC,,0.00,WeatherDisplay:10.37,2013-08-12 15:56:00,
2013-08-12 12:01:00,78.6,70.8,30.03,SSW,203,4.0,4.0,77,0.00,OVC,,0.00,WeatherDisplay:10.37,2013-08-12 16:01:00,
2013-08-12 12:06:00,79.0,71.2,30.03,SSW,204,5.0,5.0,77,0.00,OVC,,0.00,WeatherDisplay:10.37,2013-08-12 16:06:00,
2013-08-12 12:11:00,79.3,71.1,30.03,SSW,212,3.5,3.5,76,0.00,OVC,,0.00,WeatherDisplay:10.37,2013-08-12 16:11:00,
2013-08-12 12:16:00,79.3,71.1,30.03,SW,214,4.6,4.6,76,0.00,OVC,,0.00,WeatherDisplay:10.37,2013-08-12 16:16:00,
2013-08-12 12:21:00,78.9,71.1,30.03,SW,217,4.6,4.6,77,0.00,OVC,,0.00,WeatherDisplay:10.37,2013-08-12 16:21:00,
2013-08-12 12:26:00,78.9,71.1,30.03,SW,216,5.0,5.0,77,0.00,OVC,,0.00,WeatherDisplay:10.37,2013-08-12 16:26:00,
2013-08-12 12:31:00,78.7,71.3,30.03,SSW,203,6.0,6.0,78,0.00,OVC,,0.00,WeatherDisplay:10.37,2013-08-12 16:31:00,
2013-08-12 12:36:00,78.5,71.1,30.03,SSW,208,4.0,4.0,78,0.00,OVC,,0.00,WeatherDisplay:10.37,2013-08-12 16:36:00,
2013-08-12 12:41:00,78.1,71.1,30.02,SSW,207,4.0,4.0,79,0.00,OVC,,0.00,WeatherDisplay:10.37,2013-08-12 16:41:00,
2013-08-12 12:46:00,77.6,70.9,30.03,SSW,209,4.0,4.0,80,0.00,OVC,,0.00,WeatherDisplay:10.37,2013-08-12 16:46:00,
2013-08-12 12:51:00,77.3,71.0,30.02,SSW,209,1.1,1.1,81,0.00,OVC,,0.00,WeatherDisplay:10.37,2013-08-12 16:51:00,
2013-08-12 12:56:00,77.1,71.2,30.01,SSW,209,2.3,2.3,82,0.00,OVC,,0.00,WeatherDisplay:10.37,2013-08-12 16:56:00,
2013-08-12 13:01:00,77.0,71.4,30.02,SSW,209,4.6,4.6,83,0.00,OVC,,0.00,WeatherDisplay:10.37,2013-08-12 17:01:00,
2013-08-12 13:06:00,76.6,71.4,30.03,SSW,210,1.1,0.0,84,0.01,-RA,,0.01,WeatherDisplay:10.37,2013-08-12 17:06:00,
2013-08-12 13:11:00,76.2,71.4,30.03,SSW,210,0.0,0.0,85,0.03,-RA,,0.03,WeatherDisplay:10.37,2013-08-12 17:11:00,
2013-08-12 13:16:00,75.9,71.4,30.03,SSW,210,0.0,0.0,86,0.05,-RA,,0.05,WeatherDisplay:10.37,2013-08-12 17:16:00,
2013-08-12 13:21:00,75.4,71.3,30.01,SSW,210,1.1,0.0,87,0.08,-RA,,0.08,WeatherDisplay:10.37,2013-08-12 17:21:00,
2013-08-12 13:26:00,75.2,71.4,30.02,SSW,210,1.1,0.0,88,0.11,-RA,,0.11,WeatherDisplay:10.37,2013-08-12 17:26:00,
2013-08-12 13:31:00,74.8,71.0,30.02,WSW,238,5.0,5.0,88,0.12,-RA,,0.12,WeatherDisplay:10.37,2013-08-12 17:31:00,
2013-08-12 13:36:00,73.5,69.4,30.02,NNE,18,1.1,0.0,87,0.13,-RA,,0.13,WeatherDisplay:10.37,2013-08-12 17:36:00,
2013-08-12 13:41:00,72.3,68.2,30.02,NNE,12,9.2,9.2,87,0.16,-RA,,0.16,WeatherDisplay:10.37,2013-08-12 17:41:00,
2013-08-12 13:46:00,71.5,67.4,30.03,WSW,249,5.8,5.8,87,0.18,-RA,,0.18,WeatherDisplay:10.37,2013-08-12 17:46:00,
2013-08-12 13:51:00,71.1,67.4,30.03,WSW,244,2.3,2.3,88,0.24,-RA,,0.26,WeatherDisplay:10.37,2013-08-12 17:51:00,
2013-08-12 13:56:00,71.1,67.7,30.02,WSW,244,0.0,0.0,89,0.30,-RA,,0.32,WeatherDisplay:10.37,2013-08-12 17:56:00,
2013-08-12 14:01:00,71.1,67.7,30.02,WSW,244,1.1,1.1,89,0.33,-RA,,0.33,WeatherDisplay:10.37,2013-08-12 18:01:00,
2013-08-12 14:06:00,71.1,67.7,30.01,WSW,244,0.0,0.0,89,0.34,RA,,0.34,WeatherDisplay:10.37,2013-08-12 18:06:00,
2013-08-12 14:11:00,71.2,68.1,30.02,WSW,244,1.1,1.1,90,0.31,RA,,0.34,WeatherDisplay:10.37,2013-08-12 18:11:00,
2013-08-12 14:16:00,71.3,68.2,30.02,WSW,244,0.0,0.0,90,0.29,RA,,0.35,WeatherDisplay:10.37,2013-08-12 18:16:00,
2013-08-12 14:21:00,71.7,68.6,30.01,WSW,244,0.0,0.0,90,0.27,RA,,0.35,WeatherDisplay:10.37,2013-08-12 18:21:00,
2013-08-12 14:26:00,71.9,68.8,30.01,WSW,244,1.1,1.1,90,0.24,RA,,0.35,WeatherDisplay:10.37,2013-08-12 18:26:00,
2013-08-12 14:31:00,72.4,69.3,30.00,WSW,244,1.1,1.1,90,0.23,OVC,,0.35,WeatherDisplay:10.37,2013-08-12 18:31:00,
2013-08-12 14:36:00,73.4,70.3,30.00,WSW,244,0.0,0.0,90,0.22,OVC,,0.35,WeatherDisplay:10.37,2013-08-12 18:36:00,
2013-08-12 14:41:00,73.5,70.4,29.99,WSW,244,2.3,2.3,90,0.19,OVC,,0.35,WeatherDisplay:10.37,2013-08-12 18:41:00,
2013-08-12 14:46:00,73.6,70.5,30.00,WSW,244,4.0,4.0,90,0.17,OVC,,0.35,WeatherDisplay:10.37,2013-08-12 18:46:00,
2013-08-12 14:51:00,73.7,70.6,30.00,WSW,245,1.1,0.0,90,0.09,OVC,,0.35,WeatherDisplay:10.37,2013-08-12 18:51:00,
2013-08-12 14:56:00,74.1,71.0,30.00,WSW,244,3.5,3.5,90,0.03,OVC,,0.35,WeatherDisplay:10.37,2013-08-12 18:56:00,
2013-08-12 15:02:00,74.4,70.6,29.99,WSW,245,1.0,0.0,88,0.02,-RA,,0.35,WeatherDisplay:10.37,2013-08-12 19:02:00,
2013-08-12 15:07:00,75.2,71.1,29.99,WSW,245,3.5,3.5,87,0.01,-RA,,0.35,WeatherDisplay:10.37,2013-08-12 19:07:00,
2013-08-12 15:12:00,75.9,70.7,29.99,WSW,247,3.5,3.5,84,0.01,-RA,,0.35,WeatherDisplay:10.37,2013-08-12 19:12:00,
2013-08-12 15:17:00,76.5,70.6,29.98,WSW,247,0.0,0.0,82,0.00,-RA,,0.35,WeatherDisplay:10.37,2013-08-12 19:17:00,
2013-08-12 15:22:00,77.2,70.9,29.98,WSW,247,0.0,0.0,81,0.00,-RA,,0.35,WeatherDisplay:10.37,2013-08-12 19:22:00,
2013-08-12 15:27:00,77.5,70.8,29.98,WSW,247,0.0,0.0,80,0.00,-RA,,0.35,WeatherDisplay:10.37,2013-08-12 19:27:00,
2013-08-12 15:32:00,78.2,70.8,29.98,WSW,247,1.1,1.1,78,0.00,-RA,,0.35,WeatherDisplay:10.37,2013-08-12 19:32:00,
2013-08-12 15:37:00,78.7,70.9,29.98,WSW,247,0.0,0.0,77,0.00,-RA,,0.35,WeatherDisplay:10.37,2013-08-12 19:37:00,
2013-08-12 15:42:00,79.6,71.8,29.97,WSW,247,0.0,0.0,77,0.00,-RA,,0.35,WeatherDisplay:10.37,2013-08-12 19:42:00,
2013-08-12 15:47:00,80.6,72.3,29.97,WSW,247,0.0,0.0,76,0.00,-RA,,0.35,WeatherDisplay:10.37,2013-08-12 19:47:00,
2013-08-12 15:52:00,81.7,71.8,29.96,WSW,247,3.5,3.5,72,0.00,-RA,,0.35,WeatherDisplay:10.37,2013-08-12 19:52:00,
2013-08-12 15:57:00,81.7,72.2,29.96,WSW,247,2.0,2.0,73,0.00,-RA,,0.35,WeatherDisplay:10.37,2013-08-12 19:57:00,
2013-08-12 16:02:00,82.3,72.8,29.96,WSW,247,3.0,3.0,73,0.00,FEW,,0.35,WeatherDisplay:10.37,2013-08-12 20:02:00,
2013-08-12 16:07:00,82.7,72.7,29.95,WSW,247,4.0,4.0,72,0.00,FEW,,0.35,WeatherDisplay:10.37,2013-08-12 20:07:00,
2013-08-12 16:12:00,83.2,73.2,29.96,WSW,247,1.1,1.1,72,0.00,FEW,,0.35,WeatherDisplay:10.37,2013-08-12 20:12:00,
2013-08-12 16:17:00,83.9,73.5,29.95,WSW,247,3.5,3.5,71,0.00,FEW,,0.35,WeatherDisplay:10.37,2013-08-12 20:17:00,
2013-08-12 16:22:00,83.9,73.1,29.95,WSW,247,1.1,1.1,70,0.00,FEW,,0.35,WeatherDisplay:10.37,2013-08-12 20:22:00,
2013-08-12 16:27:00,84.0,73.2,29.95,WSW,247,4.0,4.0,70,0.00,FEW,,0.35,WeatherDisplay:10.37,2013-08-12 20:27:00,
2013-08-12 16:32:00,83.8,72.5,29.95,SW,235,3.5,3.5,69,0.00,FEW,,0.35,WeatherDisplay:10.37,2013-08-12 20:32:00,
2013-08-12 16:37:00,83.5,72.7,29.95,SW,236,4.0,4.0,70,0.00,FEW,,0.35,WeatherDisplay:10.37,2013-08-12 20:37:00,
2013-08-12 16:42:00,83.4,72.6,29.96,SW,236,3.5,3.5,70,0.00,FEW,,0.35,WeatherDisplay:10.37,2013-08-12 20:42:00,
2013-08-12 16:47:00,83.2,72.8,29.95,SW,236,2.3,2.3,71,0.00,FEW,,0.35,WeatherDisplay:10.37,2013-08-12 20:47:00,
2013-08-12 16:52:00,82.7,72.7,29.95,SW,236,4.0,4.0,72,0.00,FEW,,0.35,WeatherDisplay:10.37,2013-08-12 20:52:00,
2013-08-12 16:57:00,82.3,73.2,29.95,SW,236,1.1,1.1,74,0.00,FEW,,0.35,WeatherDisplay:10.37,2013-08-12 20:57:00,
2013-08-12 17:02:00,82.6,73.5,29.94,SW,236,4.6,4.6,74,0.00,BKN,,0.35,WeatherDisplay:10.37,2013-08-12 21:02:00,
2013-08-12 17:07:00,82.9,73.4,29.94,SW,232,7.0,7.0,73,0.00,BKN,,0.35,WeatherDisplay:10.37,2013-08-12 21:07:00,
2013-08-12 17:12:00,82.5,73.0,29.94,SW,233,5.0,5.0,73,0.00,BKN,,0.35,WeatherDisplay:10.37,2013-08-12 21:12:00,
2013-08-12 17:17:00,82.5,73.0,29.94,SW,224,5.8,5.8,73,0.00,BKN,,0.35,WeatherDisplay:10.37,2013-08-12 21:17:00,
2013-08-12 17:22:00,82.3,72.4,29.94,SW,232,6.0,6.0,72,0.00,BKN,,0.35,WeatherDisplay:10.37,2013-08-12 21:22:00,
2013-08-12 17:27:00,82.6,73.1,29.94,SW,234,5.0,5.0,73,0.00,BKN,,0.35,WeatherDisplay:10.37,2013-08-12 21:27:00,
2013-08-12 17:32:00,82.5,73.0,29.93,SW,230,3.5,3.5,73,0.00,BKN,,0.35,WeatherDisplay:10.37,2013-08-12 21:32:00,
2013-08-12 17:37:00,82.3,72.8,29.93,SW,234,6.0,6.0,73,0.00,BKN,,0.35,WeatherDisplay:10.37,2013-08-12 21:37:00,
2013-08-12 17:42:00,82.1,72.6,29.93,WSW,237,5.8,5.8,73,0.00,BKN,,0.35,WeatherDisplay:10.37,2013-08-12 21:42:00,
2013-08-12 17:47:00,81.9,72.8,29.93,WSW,238,5.8,5.8,74,0.00,BKN,,0.35,WeatherDisplay:10.37,2013-08-12 21:47:00,
2013-08-12 17:52:00,81.9,72.4,29.93,SW,220,5.8,5.8,73,0.00,BKN,,0.35,WeatherDisplay:10.37,2013-08-12 21:52:00,
2013-08-12 17:57:00,81.6,72.5,29.93,SW,222,4.6,4.6,74,0.00,BKN,,0.35,WeatherDisplay:10.37,2013-08-12 21:57:00,
2013-08-12 18:02:00,81.5,72.4,29.93,SW,221,5.0,5.0,74,0.00,SCT,,0.35,WeatherDisplay:10.37,2013-08-12 22:02:00,
2013-08-12 18:07:00,81.2,72.1,29.93,SW,221,3.0,3.0,74,0.00,SCT,,0.35,WeatherDisplay:10.37,2013-08-12 22:07:00,
2013-08-12 18:12:00,80.7,72.0,29.92,SSW,208,6.0,6.0,75,0.00,SCT,,0.35,WeatherDisplay:10.37,2013-08-12 22:12:00,
2013-08-12 18:17:00,80.3,71.6,29.92,SSW,201,3.5,3.5,75,0.00,SCT,,0.35,WeatherDisplay:10.37,2013-08-12 22:17:00,
2013-08-12 18:22:00,80.2,71.9,29.92,SSW,198,6.0,6.0,76,0.00,SCT,,0.35,WeatherDisplay:10.37,2013-08-12 22:22:00,
2013-08-12 18:27:00,80.2,71.9,29.91,SSW,199,3.5,0.0,76,0.00,SCT,,0.35,WeatherDisplay:10.37,2013-08-12 22:27:00,
2013-08-12 18:32:00,80.0,72.1,29.92,SSW,199,0.0,0.0,77,0.00,SCT,,0.35,WeatherDisplay:10.37,2013-08-12 22:32:00,
2013-08-12 18:37:00,80.1,72.2,29.93,SSW,199,3.0,3.0,77,0.00,SCT,,0.35,WeatherDisplay:10.37,2013-08-12 22:37:00,
2013-08-12 18:42:00,80.0,72.5,29.93,SSW,199,2.3,2.3,78,0.00,SCT,,0.35,WeatherDisplay:10.37,2013-08-12 22:42:00,
2013-08-12 18:47:00,79.9,72.4,29.92,SSW,199,0.0,0.0,78,0.00,SCT,,0.35,WeatherDisplay:10.37,2013-08-12 22:47:00,
2013-08-12 18:52:00,79.8,72.3,29.92,SSW,198,2.3,2.3,78,0.00,SCT,,0.35,WeatherDisplay:10.37,2013-08-12 22:52:00,
2013-08-12 18:57:00,79.7,72.2,29.91,SSW,199,0.0,0.0,78,0.00,SCT,,0.35,WeatherDisplay:10.37,2013-08-12 22:57:00,
2013-08-12 19:02:00,79.4,71.9,29.91,SSW,198,1.1,0.0,78,0.00,BKN,,0.35,WeatherDisplay:10.37,2013-08-12 23:02:00,
2013-08-12 19:07:00,79.2,72.5,29.92,SSW,199,2.3,2.3,80,0.04,RA,,0.40,WeatherDisplay:10.37,2013-08-12 23:07:00,
2013-08-12 19:12:00,78.7,72.7,29.93,SSW,198,3.5,3.5,82,0.19,RA,,0.56,WeatherDisplay:10.37,2013-08-12 23:12:00,
2013-08-12 19:17:00,77.9,72.0,29.93,SSW,199,1.1,0.0,82,0.31,RA,,0.68,WeatherDisplay:10.37,2013-08-12 23:17:00,
2013-08-12 19:22:00,76.2,70.3,29.93,ESE,116,7.0,7.0,82,0.36,RA,,0.71,WeatherDisplay:10.37,2013-08-12 23:22:00,
2013-08-12 19:27:00,75.1,69.6,29.93,ENE,57,8.1,8.1,83,0.36,RA,,0.71,WeatherDisplay:10.37,2013-08-12 23:27:00,
2013-08-12 19:32:00,73.8,68.0,29.93,ENE,63,12.7,12.7,82,0.36,BKN,,0.71,WeatherDisplay:10.37,2013-08-12 23:32:00,
2013-08-12 19:37:00,72.6,66.4,29.93,NE,47,13.8,13.8,81,0.36,BKN,,0.71,WeatherDisplay:10.37,2013-08-12 23:37:00,
2013-08-12 19:42:00,72.2,66.0,29.95,North,352,9.2,9.2,81,0.39,RA,,0.76,WeatherDisplay:10.37,2013-08-12 23:42:00,
2013-08-12 19:47:00,70.6,65.5,29.95,NW,312,8.1,8.1,84,0.60,RA,,0.96,WeatherDisplay:10.37,2013-08-12 23:47:00,
2013-08-12 19:52:00,69.7,65.3,29.94,West,266,4.0,4.0,86,0.63,RA,,0.98,WeatherDisplay:10.37,2013-08-12 23:52:00,
2013-08-12 19:57:00,69.5,65.5,29.94,West,266,3.5,3.5,87,0.64,RA,,0.99,WeatherDisplay:10.37,2013-08-12 23:57:00,
2013-08-12 20:02:00,69.3,65.6,29.94,West,266,5.0,5.0,88,0.64,RA,,0.99,WeatherDisplay:10.37,2013-08-13 00:02:00,
2013-08-12 20:07:00,69.0,65.3,29.93,West,266,0.0,0.0,88,0.62,RA,,1.00,WeatherDisplay:10.37,2013-08-13 00:07:00,
2013-08-12 20:12:00,69.0,65.3,29.92,West,266,0.0,0.0,88,0.46,RA,,1.00,WeatherDisplay:10.37,2013-08-13 00:12:00,
2013-08-12 20:17:00,69.1,65.7,29.92,West,266,0.0,0.0,89,0.32,OVC,,1.00,WeatherDisplay:10.37,2013-08-13 00:17:00,
2013-08-12 20:22:00,69.2,65.8,29.92,West,266,0.0,0.0,89,0.29,OVC,,1.00,WeatherDisplay:10.37,2013-08-13 00:22:00,
2013-08-12 20:27:00,69.3,65.9,29.92,West,266,0.0,0.0,89,0.29,OVC,,1.00,WeatherDisplay:10.37,2013-08-13 00:27:00,
2013-08-12 20:32:00,69.3,65.9,29.91,West,266,3.5,3.5,89,0.29,OVC,,1.00,WeatherDisplay:10.37,2013-08-13 00:32:00,
2013-08-12 20:37:00,69.2,65.8,29.91,West,266,0.0,0.0,89,0.29,OVC,,1.00,WeatherDisplay:10.37,2013-08-13 00:37:00,
2013-08-12 20:42:00,69.2,65.8,29.91,West,266,0.0,0.0,89,0.28,OVC,,1.00,WeatherDisplay:10.37,2013-08-13 00:42:00,
2013-08-12 20:47:00,69.4,66.3,29.91,West,266,0.0,0.0,90,0.05,OVC,,1.00,WeatherDisplay:10.37,2013-08-13 00:47:00,
2013-08-12 20:52:00,69.5,66.4,29.91,West,266,0.0,0.0,90,0.02,OVC,,1.00,WeatherDisplay:10.37,2013-08-13 00:52:00,
2013-08-12 20:58:00,69.6,66.5,29.91,West,266,0.0,0.0,90,0.01,OVC,,1.00,WeatherDisplay:10.37,2013-08-13 00:58:00,
2013-08-12 21:03:00,69.9,66.8,29.91,West,266,0.0,0.0,90,0.01,CLR,,1.00,WeatherDisplay:10.37,2013-08-13 01:03:00,
2013-08-12 21:08:00,70.0,66.9,29.91,WSW,245,6.0,6.0,90,0.00,CLR,,1.00,WeatherDisplay:10.37,2013-08-13 01:08:00,
2013-08-12 21:13:00,70.6,67.5,29.91,SW,232,7.0,7.0,90,0.00,CLR,,1.00,WeatherDisplay:10.37,2013-08-13 01:13:00,
2013-08-12 21:18:00,70.9,67.8,29.91,SW,232,3.5,3.5,90,0.00,CLR,,1.00,WeatherDisplay:10.37,2013-08-13 01:18:00,
2013-08-12 21:23:00,71.0,67.9,29.91,SW,232,6.0,6.0,90,0.00,CLR,,1.00,WeatherDisplay:10.37,2013-08-13 01:23:00,
2013-08-12 21:28:00,71.0,67.9,29.90,SW,223,3.5,3.5,90,0.00,CLR,,1.00,WeatherDisplay:10.37,2013-08-13 01:28:00,
2013-08-12 21:33:00,70.9,67.8,29.92,WSW,239,6.0,6.0,90,0.00,CLR,,1.00,WeatherDisplay:10.37,2013-08-13 01:33:00,
2013-08-12 21:38:00,70.7,67.6,29.91,WSW,239,5.0,5.0,90,0.00,CLR,,1.00,WeatherDisplay:10.37,2013-08-13 01:38:00,
2013-08-12 21:43:00,70.5,67.4,29.91,WSW,257,10.4,10.4,90,0.00,CLR,,1.00,WeatherDisplay:10.37,2013-08-13 01:43:00,
2013-08-12 21:48:00,70.4,67.3,29.91,WSW,253,5.0,5.0,90,0.00,CLR,,1.00,WeatherDisplay:10.37,2013-08-13 01:48:00,
2013-08-12 21:53:00,70.3,67.2,29.91,WSW,254,4.0,4.0,90,0.00,CLR,,1.00,WeatherDisplay:10.37,2013-08-13 01:53:00,
2013-08-12 21:58:00,70.2,67.1,29.92,WSW,252,7.0,7.0,90,0.00,CLR,,1.00,WeatherDisplay:10.37,2013-08-13 01:58:00,
2013-08-12 22:03:00,70.1,67.0,29.92,WSW,255,7.0,7.0,90,0.01,RA,,1.01,WeatherDisplay:10.37,2013-08-13 02:03:00,
2013-08-12 22:08:00,70.0,66.9,29.92,WSW,245,4.6,4.6,90,0.01,RA,,1.01,WeatherDisplay:10.37,2013-08-13 02:08:00,
2013-08-12 22:13:00,69.9,66.8,29.92,WSW,244,8.1,8.1,90,0.01,CLR,,1.01,WeatherDisplay:10.37,2013-08-13 02:13:00,
2013-08-12 22:18:00,69.7,66.6,29.91,WSW,241,2.0,2.0,90,0.01,CLR,,1.01,WeatherDisplay:10.37,2013-08-13 02:18:00,
2013-08-12 22:23:00,69.6,66.5,29.92,WSW,239,3.5,3.5,90,0.01,CLR,,1.01,WeatherDisplay:10.37,2013-08-13 02:23:00,
2013-08-12 22:28:00,69.4,66.3,29.92,SW,222,7.0,7.0,90,0.01,CLR,,1.01,WeatherDisplay:10.37,2013-08-13 02:28:00,
2013-08-12 22:33:00,69.2,66.1,29.92,SW,232,8.0,8.0,90,0.01,CLR,,1.01,WeatherDisplay:10.37,2013-08-13 02:33:00,
2013-08-12 22:38:00,69.1,66.0,29.92,SW,232,5.0,5.0,90,0.01,CLR,,1.01,WeatherDisplay:10.37,2013-08-13 02:38:00,
2013-08-12 22:44:00,69.0,65.9,29.91,SW,233,4.6,4.6,90,0.01,CLR,,1.01,WeatherDisplay:10.37,2013-08-13 02:44:00,
2013-08-12 22:49:00,69.0,65.9,29.91,WSW,241,7.0,7.0,90,0.01,CLR,,1.01,WeatherDisplay:10.37,2013-08-13 02:49:00,
2013-08-12 22:54:00,69.0,65.9,29.92,WSW,242,8.0,8.0,90,0.01,CLR,,1.01,WeatherDisplay:10.37,2013-08-13 02:54:00,
2013-08-12 22:59:00,69.0,65.9,29.92,WSW,241,4.6,4.6,90,0.01,CLR,,1.01,WeatherDisplay:10.37,2013-08-13 02:59:00,
2013-08-12 23:04:00,69.0,65.9,29.91,WSW,241,5.0,5.0,90,0.00,BKN,,1.01,WeatherDisplay:10.37,2013-08-13 03:04:00,
2013-08-12 23:09:00,69.1,66.0,29.91,WSW,241,4.0,4.0,90,0.00,BKN,,1.01,WeatherDisplay:10.37,2013-08-13 03:09:00,
2013-08-12 23:14:00,69.1,66.0,29.91,WSW,241,5.0,5.0,90,0.00,BKN,,1.01,WeatherDisplay:10.37,2013-08-13 03:14:00,
2013-08-12 23:19:00,69.2,66.1,29.92,SW,234,3.5,3.5,90,0.00,BKN,,1.01,WeatherDisplay:10.37,2013-08-13 03:19:00,
2013-08-12 23:24:00,69.2,66.1,29.92,SW,233,3.0,3.0,90,0.00,BKN,,1.01,WeatherDisplay:10.37,2013-08-13 03:24:00,
2013-08-12 23:29:00,69.2,66.1,29.92,SW,235,6.0,6.0,90,0.00,BKN,,1.01,WeatherDisplay:10.37,2013-08-13 03:29:00,
2013-08-12 23:34:00,69.3,66.2,29.92,SW,234,3.5,3.5,90,0.00,BKN,,1.01,WeatherDisplay:10.37,2013-08-13 03:34:00,
2013-08-12 23:39:00,69.3,66.2,29.92,SW,234,1.1,1.1,90,0.00,BKN,,1.01,WeatherDisplay:10.37,2013-08-13 03:39:00,
2013-08-12 23:44:00,69.3,66.2,29.92,SW,234,1.0,0.0,90,0.00,BKN,,1.01,WeatherDisplay:10.37,2013-08-13 03:44:00,
2013-08-12 23:49:00,69.3,66.2,29.92,SW,234,3.0,3.0,90,0.00,BKN,,1.01,WeatherDisplay:10.37,2013-08-13 03:49:00,
2013-08-12 23:54:00,69.3,66.2,29.91,SW,234,5.0,5.0,90,0.00,BKN,,1.01,WeatherDisplay:10.37,2013-08-13 03:54:00,
2013-08-12 23:59:00,69.3,66.2,29.91,SW,235,2.3,2.3,90,0.00,BKN,,1.01,WeatherDisplay:10.37,2013-08-13 03:59:00,